Regional Weather Roundup
Issued by NWS

Home | Current Version | Previous Version | Text Only | Print | Product List | Glossary Off
Versions: 1 2 3 4 5 6 7 8 9 10 11 12 13 14 15 16 17 18 19 20 21 22 23 24 25 26 27 28 29 30 31 32 33 34 35 36 37 38 39 40 41 42 43 44 45 46 47 48 49 50

000
ASUS43 KFSD 230102
RWRSD

WEATHER ROUNDUP FOR SOUTH DAKOTA
NATIONAL WEATHER SERVICE SIOUX FALLS SD
700 PM CST SAT NOV 22 2014

NOTE: "FAIR" INDICATES FEW OR NO CLOUDS BELOW 12,000 FEET WITH NO
SIGNIFICANT WEATHER AND/OR OBSTRUCTIONS TO VISIBILITY.


SDZ001>005-009-010-012>017-230200-
NORTHWEST AND NORTH CENTRAL SOUTH DAKOTA

CITY           SKY/WX    TMP DP  RH WIND       PRES   REMARKS
BUFFALO          N/A     40  30  67 S8        29.31S
FAITH            N/A     41  28  60 CALM      29.39F
MOBRIDGE       CLOUDY    39  31  72 SE3       29.36S
$$

SDZ012>016-024>037-041>051-057-063-072>074-230200-
SOUTHWEST AND SOUTH CENTRAL SOUTH DAKOTA

CITY           SKY/WX    TMP DP  RH WIND       PRES   REMARKS
RAPID CTY ARPT CLOUDY    46  29  51 CALM      29.41R
PIERRE         CLOUDY    40  31  70 SW6       29.41R
CUSTER         CLOUDY    39  28  64 W8G23     29.45S
ELLSWORTH AFB  CLOUDY    42  29  58 E6        29.41R
PHILIP         CLOUDY    52  31  44 CALM      29.42S
PINE RIDGE     CLOUDY    42  30  62 CALM      29.48R
WINNER         FAIR      51  30  44 SW10      29.44R
$$

SDZ004>011-016>023-039-040-230200-
NORTHEAST SOUTH DAKOTA

CITY           SKY/WX    TMP DP  RH WIND       PRES   REMARKS
ABERDEEN       PTCLDY    31  29  92 SW3       29.39F
WATERTOWN      PTCLDY    34  31  88 S12       29.40F WCI  25
SISSETON         N/A     32  31  96 S9        29.41F WCI  24
$$

SDZ017-020-022-023-036>040-048>070-230200-
SOUTHEAST SOUTH DAKOTA

CITY           SKY/WX    TMP DP  RH WIND       PRES   REMARKS
SIOUX FALLS    CLOUDY    41  36  82 S17G28    29.48S
HURON          PTCLDY    38  34  85 S6        29.41R
CHAMBERLAIN    CLOUDY    44  31  60 N7        29.43R
MITCHELL       MOCLDY    47  35  63 S8        29.43S
YANKTON        CLOUDY    45  36  70 S8        29.49F
$$

ABBREVIATIONS USED IN REMARKS
   TC - TEMPERATURE IN CELSIUS
  WCI - WIND CHILL INDEX
   HX - HEAT INDEX
  VSB - VISIBILITY



USA.gov is the U.S. government's official web portal to all federal, state and local government web resources and services.